Temperature
18 18 18 18 18 18 17 17 17 17 17 16 16 16 15 15 15 15 14 14 14 14 13 13 14 14 14 13 13 13 13 14 14 14 14 14 14 14 13 13 13 13 13
18 18 18 18 18 18 17 17 17 17 17 17 16 16 15 15 15 15 15 14 14 14 14 14 14 14 14 14 14 14 14 13 13 14 14 14 14 13 13 13 13 13 13
18 18 18 18 18 18 18 17 17 17 17 17 17 16 16 15 15 15 15 15 14 14 14 14 14 14 14 14 14 14 14 13 13 13 13 13 13 13 13 13 13 13 13
18 18 18 18 18 18 18 17 17 17 17 17 17 17 16 16 15 15 15 15 15 14 14 14 14 14 14 14 14 14 14 13 13 13 13 13 13 13 13 13 13 13 13
19 19 18 18 18 18 18 17 17 17 17 17 17 16 16 16 16 15 15 15 15 15 15 14 14 14 14 14 14 14 13 13 13 13 13 13 13 13 13 13 13 13 13
20 19 19 18 18 18 17 17 17 17 17 17 17 16 16 16 16 15 15 15 15 15 15 15 15 14 14 14 14 14 14 13 13 13 13 13 13 13 13 13 12 12 12
20 19 19 19 18 18 17 17 17 17 17 16 16 16 16 16 16 15 15 15 15 15 15 15 15 14 14 14 14 14 14 14 13 13 13 13 13 13 13 12 12 12 12
20 19 19 18 18 18 17 17 17 17 17 17 16 16 16 16 16 16 15 15 15 15 15 15 15 15 14 14 13 13 13 13 13 13 13 13 13 13 13 12 12 12 12
19 18 18 18 18 17 17 17 16 16 16 16 16 16 16 16 15 15 15 15 15 15 15 15 15 14 14 14 13 13 13 13 13 13 13 13 13 13 12 12 12 11 11
18 18 18 17 17 17 17 16 16 16 15 15 15 15 15 15 15 15 15 14 14 14 14 14 14 14 14 14 13 13 13 13 13 13 12 12 12 12 12 12 12 11 11
17 17 17 17 16 16 16 15 15 15 15 15 15 15 15 15 15 15 14 14 14 14 13 13 13 14 14 13 13 13 13 13 13 12 12 12 12 12 12 12 12 12 11
16 16 16 16 15 15 15 15 15 15 14 14 14 14 14 14 14 14 14 14 14 13 13 13 13 13 13 13 13 13 13 12 12 12 11 11 12 12 12 12 12 12 12
15 15 15 15 15 15 14 14 14 14 14 14 14 14 14 14 13 13 13 13 13 13 12 12 12 12 12 12 12 12 12 12 12 11 11 11 11 12 12 12 12 12 12
14 14 14 14 14 14 14 14 13 13 13 13 13 13 13 13 13 13 13 12 12 12 11 11 11 12 12 12 12 12 12 12 11 11 11 11 11 11 11 12 12 12 12
13 13 13 13 13 13 13 13 13 13 13 13 13 13 13 12 12 12 12 12 11 11 11 11 11 11 10 11 11 11 11 11 11 11 11 11 11 11 11 11 11 12 11
12 12 13 13 13 13 13 13 13 13 13 12 12 12 12 12 12 11 11 11 11 10 10 10 10 9 9 10 10 10 11 11 11 11 11 11 11 11 11 11 11 11 11
12 12 12 12 12 12 13 13 13 13 12 12 12 12 12 11 11 11 10 10 10 10 10 10 9 9 9 9 10 10 10 10 11 11 11 11 11 10 10 10 10 10 10
11 12 12 12 12 12 12 12 12 12 12 12 12 12 11 11 10 10 10 10 9 9 9 9 9 9 9 9 9 9 10 10 10 10 10 10 10 10 10 10 10 10 10
11 11 11 11 11 12 12 12 12 12 12 11 11 11 11 10 10 10 9 9 9 9 9 9 9 9 9 9 9 9 9 9 9 9 9 9 9 9 9 9 9 9 10
11 11 11 11 11 11 11 11 11 11 11 11 10 10 10 9 9 9 9 8 8 8 8 8 8 8 8 8 8 8 8 8 8 8 8 8 9 9 9 9 9 9 9
10 11 11 11 11 11 11 10 10 10 10 10 9 9 9 8 8 8 8 8 7 7 7 7 7 7 7 7 7 7 7 7 7 7 8 8 8 8 8 8 8 8 8
10 10 10 10 10 10 10 10 9 9 9 9 8 8 8 7 7 7 7 7 6 6 6 6 6 6 6 6 6 6 6 6 6 7 7 7 7 7 7 7 8 8 8
9 9 10 10 9 9 9 9 9 8 8 7 7 7 7 6 6 6 6 5 5 5 5 5 5 5 5 5 5 5 5 5 6 6 6 6 6 7 7 7 7 7 7
9 9 9 9 9 8 8 8 7 7 7 6 6 6 5 5 5 5 5 5 4 4 4 5 5 5 4 5 5 5 5 5 5 5 5 6 6 6 6 6 7 7 7
8 8 8 8 8 7 7 7 6 6 5 5 5 5 5 4 4 4 4 4 4 4 4 4 4 4 4 4 4 4 4 4 5 5 5 5 5 5 6 6 6 6 7
7 7 7 7 6 6 6 5 5 5 4 4 4 4 4 3 3 3 3 3 3 3 3 3 3 3 3 3 3 4 4 4 4 4 5 5 5 5 6 6 6 6 6
Wind_Speed
13 12 11 11 10 8 7 7 6 6 6 7 7 7 7 7 7 6 6 5 6 5 5 5 4 4 3 3 3 3 3 3 4 4 3 2 2 3 3 6 9 11 12
12 11 10 10 10 9 9 8 8 7 7 8 8 7 8 8 7 7 8 7 6 6 6 6 5 5 5 4 4 4 4 3 4 5 4 4 5 4 5 5 8 11 11
13 11 10 10 10 10 9 9 9 8 8 8 8 8 8 8 8 8 8 7 7 7 7 7 6 6 6 5 5 5 4 5 4 5 5 5 4 5 5 5 7 6 11
13 13 12 11 10 10 9 9 9 9 9 9 9 9 8 8 8 8 8 8 8 7 7 7 7 7 7 7 7 7 6 6 6 6 6 6 6 5 4 5 5 5 6
13 13 12 11 10 9 9 9 9 9 11 9 9 9 9 9 9 9 8 10 9 8 8 8 9 10 10 8 8 6 6 5 6 6 6 6 5 3 3 3 5 4 5
11 12 11 11 11 10 10 9 9 9 9 9 9 9 10 10 11 12 9 7 7 8 8 8 9 11 13 14 14 12 10 9 8 7 7 7 6 5 4 4 5 5 5
11 11 11 11 12 11 11 10 10 10 10 9 9 9 9 9 10 12 12 8 7 7 7 7 10 12 10 10 13 16 16 17 15 10 11 10 9 7 6 6 6 6 6
9 9 8 9 10 10 10 10 10 8 8 8 8 9 8 10 12 13 12 9 8 8 9 9 9 10 11 9 9 10 11 13 15 14 14 14 13 10 9 8 8 8 8
5 5 5 6 6 6 7 7 7 7 8 8 8 8 9 9 12 13 12 8 8 10 10 11 11 11 14 14 11 11 11 11 15 19 20 20 20 18 12 7 7 8 10
3 3 3 3 3 5 5 5 5 5 6 7 7 7 8 8 11 14 13 8 8 8 8 10 14 14 14 13 11 11 13 12 11 12 11 15 16 17 18 13 11 11 10
5 4 4 3 3 3 3 3 3 4 5 6 5 6 7 9 10 14 15 9 8 8 8 8 8 10 12 13 12 11 14 12 10 10 10 10 11 12 13 13 13 13 13
6 5 4 3 1 2 2 2 2 2 3 4 5 6 5 6 7 10 14 14 10 8 8 7 6 9 9 11 11 14 17 14 11 11 11 11 10 10 10 12 14 16 16
5 5 4 3 2 2 1 1 1 2 3 3 3 4 4 4 3 7 10 11 12 9 8 11 12 13 12 11 15 17 14 11 11 12 13 12 11 11 10 9 10 13 14
6 5 3 3 2 2 2 1 0 1 1 2 2 3 3 3 2 2 1 4 7 8 8 10 13 16 14 15 15 13 12 13 13 13 12 11 10 9 9 9 9 9 11
5 4 3 2 2 1 0 1 1 0 0 2 3 3 3 3 2 2 2 3 4 4 5 7 9 10 10 10 10 10 10 10 12 12 12 11 11 10 10 9 9 9 10
5 4 4 3 2 2 1 1 2 3 3 4 4 4 2 2 3 4 5 7 8 6 5 8 10 11 12 12 11 10 10 10 10 10 11 11 12 11 11 10 9 10 11
5 4 4 4 3 3 3 3 2 3 5 7 8 8 7 6 6 8 9 9 10 6 6 10 10 10 10 10 10 10 10 9 9 9 10 10 10 10 10 9 9 10 10
6 5 4 5 5 5 4 4 4 4 3 3 5 9 9 9 10 11 9 6 8 6 7 9 9 9 9 9 10 10 10 9 8 8 9 9 9 9 9 9 9 10 10
7 5 5 5 5 5 5 5 5 5 5 5 5 2 5 7 9 11 7 5 8 9 9 9 9 9 9 9 9 9 9 8 9 9 9 9 9 8 9 9 9 12 11
5 6 6 6 6 6 6 6 6 7 7 6 6 6 5 5 6 6 5 5 7 8 9 9 9 10 9 9 10 9 9 9 9 9 9 8 8 8 9 10 9 9 9
8 7 7 7 6 6 6 7 7 7 8 7 7 7 7 8 8 9 8 7 7 8 9 9 9 10 9 9 9 10 11 10 9 9 9 8 8 8 8 8 9 9 9
9 9 8 7 7 6 6 7 7 7 8 9 8 8 8 8 8 8 9 9 9 9 9 10 10 9 9 9 9 9 9 10 10 10 9 9 8 8 8 7 8 8 7
9 9 9 7 7 7 6 6 7 7 8 8 8 9 8 8 8 8 9 9 9 9 9 9 10 10 9 8 8 8 9 9 9 9 10 9 9 8 8 8 9 9 8
10 9 9 8 7 8 7 7 7 8 8 8 8 9 9 8 9 10 9 9 9 10 9 9 10 13 15 12 9 9 8 8 9 9 11 11 11 9 8 8 9 10 9
9 9 9 8 8 8 8 8 8 8 8 8 8 8 9 9 9 9 9 10 11 11 13 11 9 10 12 13 12 11 11 10 10 10 10 9 11 11 11 11 9 10 9
8 8 8 7 7 8 7 7 7 8 8 8 8 8 9 10 9 9 9 9 10 11 11 10 12 13 13 12 13 13 11 11 11 11 9 9 10 10 10 9 11 10 10
Wind_Direction
186 191 189 187 194 195 197 189 186 173 166 167 183 189 192 194 194 201 234 218 206 222 236 227 223 251 277 284 264 254 250 251 270 289 294 296 232 246 248 255 269 264 247
187 187 191 186 190 195 197 191 183 181 182 186 193 198 204 203 197 201 222 227 212 219 230 235 230 233 224 247 269 270 263 251 248 269 279 274 257 236 230 231 257 268 267
186 185 187 188 193 197 197 190 185 185 191 194 199 204 211 211 203 206 214 228 228 226 227 230 232 235 236 236 243 258 268 269 247 255 266 262 253 248 242 244 253 257 266
186 187 189 192 194 199 200 195 191 190 196 200 201 207 212 216 213 210 212 219 228 231 231 231 233 234 233 233 243 242 250 262 266 261 260 259 251 240 225 234 255 249 255
184 188 191 190 191 194 196 197 195 194 202 203 206 210 213 218 221 215 215 220 221 229 232 232 236 237 235 234 244 242 250 251 258 261 261 262 259 258 252 249 262 269 259
182 189 190 187 190 197 198 199 199 200 205 200 206 213 216 223 216 207 208 231 227 230 236 237 241 236 234 232 237 241 241 247 254 261 269 268 269 268 268 270 268 271 273
185 191 190 189 193 197 201 200 205 204 206 207 208 214 221 224 216 202 205 222 240 244 246 247 254 254 238 230 230 234 240 242 238 243 256 260 265 268 272 271 266 265 265
187 191 191 192 197 197 200 203 205 205 207 211 214 218 225 226 211 205 206 220 239 247 248 249 250 258 261 252 247 240 234 237 234 234 241 247 251 253 253 255 259 265 262
178 189 187 185 190 194 208 211 205 206 209 212 215 222 228 229 209 204 200 222 238 246 249 250 249 250 250 248 250 252 252 250 247 239 227 232 236 242 242 249 254 259 265
132 137 131 141 173 187 200 211 205 206 215 219 221 223 228 232 212 204 201 224 241 250 253 253 250 249 252 245 243 249 253 254 256 262 246 241 243 244 236 231 239 248 256
72 89 102 124 147 165 180 187 202 211 217 223 233 232 235 235 220 207 203 218 241 253 259 263 262 257 248 248 245 250 254 258 264 262 260 251 242 238 234 228 225 231 240
53 52 63 78 112 153 148 167 184 218 235 236 245 252 249 244 233 214 207 216 235 253 265 274 288 305 290 272 260 257 259 262 264 263 261 258 253 247 239 230 221 221 226
53 48 40 51 54 43 104 177 199 218 237 255 258 263 269 272 251 220 211 225 238 249 269 281 293 294 293 282 263 258 258 258 256 256 257 256 254 253 249 243 233 226 226
50 45 36 32 39 30 12 18 358 291 272 291 305 306 308 311 354 24 297 262 263 264 275 287 290 281 272 266 268 263 252 248 248 253 256 258 256 255 254 252 246 237 236
32 30 23 32 26 24 347 318 289 21 254 269 296 308 316 318 345 348 321 308 303 301 304 288 282 279 275 270 266 261 255 250 247 247 252 258 259 259 257 253 251 246 242
18 8 350 348 8 317 269 244 214 218 207 216 230 251 278 251 254 281 282 275 274 280 288 279 279 278 277 278 277 274 269 261 257 255 254 254 254 253 255 255 256 254 251
5 357 343 342 336 320 320 318 308 248 234 238 240 243 245 258 270 276 279 287 283 265 264 272 275 277 279 281 283 285 285 282 276 268 265 262 260 259 258 257 260 262 260
346 354 338 341 341 335 337 327 316 312 306 290 247 232 235 246 261 268 277 298 289 270 272 278 282 284 284 285 287 288 288 290 288 284 279 273 267 262 262 259 256 258 260
341 340 343 332 320 318 320 318 318 323 322 317 316 281 233 257 270 274 272 274 287 294 298 299 298 299 301 301 301 300 299 296 294 292 287 283 278 273 269 264 261 261 257
321 319 318 317 316 320 327 330 332 332 326 326 331 340 348 321 304 299 287 284 294 301 305 307 309 309 308 306 303 301 299 297 297 295 290 287 286 284 278 271 268 267 261
330 323 305 308 317 327 334 334 333 327 327 330 332 345 352 329 320 321 323 320 317 317 317 317 314 311 309 308 308 308 306 303 300 299 298 296 294 290 286 281 279 276 272
321 321 322 324 326 333 334 325 323 326 329 330 331 333 335 329 326 324 327 329 329 328 327 323 317 314 315 314 312 311 309 308 309 310 305 302 301 295 290 288 286 282 279
312 315 318 323 326 330 321 322 328 330 331 333 332 332 332 331 328 328 327 325 324 322 321 321 319 317 318 318 318 316 312 311 313 315 312 304 299 297 293 288 287 289 283
316 320 323 327 331 329 333 340 344 340 336 337 338 335 332 331 329 329 330 328 324 320 318 319 318 319 321 324 321 321 325 326 322 318 315 306 301 297 293 288 283 280 279
324 330 332 334 335 339 345 346 343 342 340 340 339 335 331 330 331 334 335 330 326 325 323 321 316 318 323 330 330 328 332 334 329 323 312 303 297 294 292 291 287 284 280
334 336 337 342 348 349 346 343 346 351 350 346 344 342 337 335 333 334 333 331 330 327 325 323 323 328 330 329 328 330 331 328 324 318 309 299 294 291 293 290 289 286 283
Height
1518 1522 1526 1528 1531 1534 1536 1538 1540 1542 1543 1544 1545 1546 1547 1548 1549 1550 1550 1552 1553 1553 1554 1554 1555 1555 1556 1556 1557 1557 1557 1558 1557 1557 1557 1556 1555 1554 1554 1552 1551 1550 1549
1515 1519 1522 1525 1527 1530 1532 1534 1536 1538 1539 1541 1542 1543 1545 1546 1546 1547 1548 1549 1550 1551 1551 1552 1552 1553 1553 1553 1554 1554 1554 1554 1554 1553 1553 1552 1552 1551 1550 1548 1547 1546 1546
1512 1515 1518 1521 1523 1525 1528 1530 1532 1534 1536 1537 1539 1540 1541 1543 1543 1544 1545 1546 1547 1548 1549 1549 1550 1550 1550 1550 1550 1550 1550 1551 1550 1550 1549 1549 1548 1547 1546 1545 1544 1543 1542
1509 1512 1514 1517 1519 1522 1524 1526 1528 1530 1532 1533 1535 1536 1538 1539 1540 1541 1542 1543 1544 1545 1545 1546 1546 1546 1546 1546 1546 1546 1546 1546 1546 1545 1545 1544 1544 1543 1542 1541 1539 1539 1538
1505 1507 1510 1512 1515 1518 1520 1522 1524 1526 1528 1529 1531 1532 1534 1535 1536 1537 1538 1539 1540 1541 1541 1542 1542 1542 1542 1542 1542 1542 1542 1542 1541 1541 1540 1540 1539 1539 1538 1536 1535 1534 1533
1501 1503 1506 1509 1511 1513 1516 1518 1519 1521 1523 1525 1526 1528 1529 1531 1532 1533 1534 1535 1536 1536 1537 1537 1537 1537 1537 1537 1537 1537 1537 1536 1536 1535 1535 1534 1533 1533 1532 1531 1530 1529 1527
1496 1499 1502 1504 1506 1509 1511 1513 1515 1517 1519 1520 1522 1524 1525 1526 1528 1529 1530 1531 1531 1532 1532 1532 1532 1532 1533 1532 1531 1531 1531 1530 1530 1529 1528 1527 1527 1527 1527 1526 1524 1523 1521
1491 1494 1497 1500 1502 1505 1507 1509 1511 1513 1514 1516 1518 1519 1521 1522 1523 1524 1525 1526 1526 1526 1526 1526 1526 1526 1527 1527 1526 1525 1524 1523 1523 1522 1521 1520 1520 1520 1520 1519 1518 1516 1514
1488 1490 1493 1496 1498 1501 1503 1504 1506 1509 1510 1511 1513 1515 1516 1517 1518 1519 1520 1520 1520 1519 1520 1520 1520 1520 1520 1520 1519 1518 1517 1516 1516 1515 1514 1513 1512 1512 1513 1512 1510 1509 1506
1486 1488 1490 1492 1494 1496 1498 1500 1501 1504 1505 1508 1509 1510 1511 1512 1513 1514 1514 1514 1513 1513 1513 1514 1514 1513 1513 1513 1512 1510 1509 1508 1508 1507 1506 1505 1504 1503 1504 1503 1502 1501 1499
1486 1487 1488 1489 1491 1494 1495 1497 1498 1500 1502 1503 1504 1505 1506 1507 1507 1508 1508 1508 1508 1507 1507 1507 1507 1507 1506 1505 1504 1503 1501 1501 1500 1498 1497 1496 1495 1494 1493 1493 1492 1492 1491
1485 1486 1487 1488 1490 1491 1493 1494 1496 1497 1498 1499 1501 1501 1502 1502 1502 1502 1502 1502 1502 1502 1501 1501 1501 1500 1499 1497 1496 1495 1494 1493 1491 1489 1487 1486 1485 1485 1484 1484 1483 1482 1481
1485 1486 1487 1487 1489 1490 1491 1491 1492 1494 1495 1496 1497 1497 1497 1497 1497 1497 1497 1497 1496 1496 1495 1494 1493 1492 1490 1488 1487 1486 1485 1483 1481 1479 1477 1475 1475 1475 1475 1475 1474 1473 1472
1486 1487 1487 1488 1489 1490 1490 1490 1491 1492 1492 1493 1493 1493 1494 1494 1493 1492 1491 1491 1491 1490 1488 1487 1485 1484 1482 1479 1477 1476 1474 1473 1471 1469 1467 1466 1466 1466 1466 1465 1465 1464 1463
1488 1488 1489 1489 1489 1489 1489 1490 1490 1490 1491 1490 1490 1490 1490 1489 1489 1488 1487 1486 1484 1483 1481 1479 1477 1475 1473 1470 1469 1467 1466 1464 1462 1460 1458 1457 1456 1456 1455 1455 1455 1454 1453
1490 1490 1491 1491 1490 1490 1489 1489 1488 1488 1488 1488 1487 1487 1486 1486 1484 1483 1482 1480 1479 1477 1475 1472 1469 1467 1465 1463 1461 1459 1457 1456 1454 1452 1450 1449 1447 1446 1445 1445 1445 1444 1443
1492 1492 1492 1491 1490 1490 1489 1488 1487 1486 1486 1485 1484 1483 1482 1481 1480 1479 1477 1475 1473 1471 1468 1465 1463 1460 1458 1456 1454 1452 1449 1447 1445 1444 1442 1440 1438 1437 1436 1435 1435 1434 1433
1494 1493 1492 1491 1490 1489 1488 1487 1486 1485 1484 1483 1482 1480 1478 1477 1476 1474 1472 1469 1467 1465 1463 1460 1458 1455 1452 1449 1447 1444 1442 1439 1437 1435 1433 1431 1430 1428 1427 1426 1425 1425 1424
1494 1493 1491 1490 1489 1488 1487 1485 1484 1483 1482 1480 1479 1477 1475 1473 1471 1470 1467 1465 1462 1460 1458 1455 1452 1449 1446 1443 1440 1437 1435 1432 1429 1427 1425 1423 1421 1420 1418 1417 1417 1416 1415
1493 1492 1491 1489 1488 1487 1485 1484 1483 1481 1480 1478 1476 1474 1472 1469 1467 1465 1463 1461 1458 1455 1452 1450 1446 1443 1440 1437 1434 1431 1428 1425 1422 1420 1417 1415 1414 1412 1411 1409 1409 1407 1406
1492 1491 1489 1488 1486 1485 1483 1482 1481 1479 1477 1475 1473 1471 1469 1466 1464 1461 1459 1456 1453 1450 1447 1444 1440 1437 1434 1431 1427 1425 1422 1419 1416 1413 1411 1409 1407 1405 1404 1402 1401 1400 1399
1491 1490 1488 1486 1484 1482 1481 1479 1478 1476 1474 1472 1470 1467 1465 1462 1460 1457 1454 1451 1448 1445 1441 1438 1435 1432 1428 1425 1422 1418 1415 1413 1410 1407 1405 1403 1401 1399 1397 1395 1394 1393 1392
1489 1487 1485 1483 1481 1479 1478 1476 1474 1473 1471 1468 1466 1463 1461 1458 1455 1452 1449 1446 1443 1439 1436 1433 1429 1426 1423 1420 1417 1413 1410 1407 1405 1402 1399 1397 1395 1393 1391 1389 1388 1386 1386
1487 1485 1483 1480 1478 1477 1475 1473 1471 1469 1467 1465 1462 1460 1457 1454 1451 1448 1445 1441 1438 1434 1431 1428 1424 1420 1417 1413 1410 1407 1404 1402 1399 1396 1394 1391 1389 1387 1385 1383 1382 1381 1380
1484 1482 1480 1478 1476 1474 1472 1470 1468 1466 1464 1461 1459 1456 1453 1450 1447 1444 1440 1437 1433 1429 1426 1422 1419 1415 1412 1408 1405 1402 1399 1396 1393 1390 1388 1385 1383 1381 1380 1378 1376 1375 1373
1481 1479 1477 1475 1473 1471 1469 1467 1465 1463 1460 1458 1455 1453 1450 1447 1443 1440 1436 1433 1429 1425 1421 1418 1414 1411 1407 1403 1400 1396 1393 1390 1387 1385 1382 1380 1378 1375 1374 1372 1371 1369 1368